<?xml version="1.0" encoding="UTF-8" standalone="no" ?>
<gpx xmlns="http://www.topografix.com/GPX/1/1" xmlns:xsi="http://www.w3.org/2001/XMLSchema-instance" xsi:schemaLocation="http://www.topografix.com/GPX/1/1 http://www.topografix.com/GPX/1/1/gpx.xsd" version="1.1" creator="VisuGPX - https://www.visugpx.com">
  <metadata>
    <name>14070150-Valchevrière GR 3</name>
  </metadata>
  <trk>
    <name><![CDATA[14070150-Valchevrière GR 3]]></name>
    <trkseg>
      <trkpt lat="45.06223" lon="5.52379">
        <ele>1127</ele>
        <time>2022-01-13T19:50:30Z</time>
      </trkpt>
      <trkpt lat="45.0622" lon="5.52375">
        <ele>1127</ele>
        <time>2022-01-13T19:50:33Z</time>
      </trkpt>
      <trkpt lat="45.06215" lon="5.52361">
        <ele>1126</ele>
        <time>2022-01-13T19:50:42Z</time>
      </trkpt>
      <trkpt lat="45.06209" lon="5.5237">
        <ele>1127</ele>
        <time>2022-01-13T19:50:49Z</time>
      </trkpt>
      <trkpt lat="45.06202" lon="5.52373">
        <ele>1128</ele>
        <time>2022-01-13T19:50:55Z</time>
      </trkpt>
      <trkpt lat="45.06161" lon="5.52364">
        <ele>1131</ele>
        <time>2022-01-13T19:51:28Z</time>
      </trkpt>
      <trkpt lat="45.0612" lon="5.52369">
        <ele>1136</ele>
        <time>2022-01-13T19:52:01Z</time>
      </trkpt>
      <trkpt lat="45.06106" lon="5.52363">
        <ele>1137</ele>
        <time>2022-01-13T19:52:13Z</time>
      </trkpt>
      <trkpt lat="45.06089" lon="5.52348">
        <ele>1137</ele>
        <time>2022-01-13T19:52:29Z</time>
      </trkpt>
      <trkpt lat="45.06074" lon="5.52331">
        <ele>1137</ele>
        <time>2022-01-13T19:52:44Z</time>
      </trkpt>
      <trkpt lat="45.06058" lon="5.52317">
        <ele>1138</ele>
        <time>2022-01-13T19:52:59Z</time>
      </trkpt>
      <trkpt lat="45.0605" lon="5.52316">
        <ele>1138</ele>
        <time>2022-01-13T19:53:06Z</time>
      </trkpt>
      <trkpt lat="45.06047" lon="5.52307">
        <ele>1138</ele>
        <time>2022-01-13T19:53:11Z</time>
      </trkpt>
      <trkpt lat="45.06038" lon="5.52295">
        <ele>1137</ele>
        <time>2022-01-13T19:53:21Z</time>
      </trkpt>
      <trkpt lat="45.06025" lon="5.52292">
        <ele>1138</ele>
        <time>2022-01-13T19:53:32Z</time>
      </trkpt>
      <trkpt lat="45.06008" lon="5.52275">
        <ele>1137</ele>
        <time>2022-01-13T19:53:49Z</time>
      </trkpt>
      <trkpt lat="45.06004" lon="5.52268">
        <ele>1137</ele>
        <time>2022-01-13T19:53:54Z</time>
      </trkpt>
      <trkpt lat="45.06011" lon="5.52266">
        <ele>1137</ele>
        <time>2022-01-13T19:53:59Z</time>
      </trkpt>
      <trkpt lat="45.05995" lon="5.5225">
        <ele>1136</ele>
        <time>2022-01-13T19:54:15Z</time>
      </trkpt>
      <trkpt lat="45.05976" lon="5.52238">
        <ele>1135</ele>
        <time>2022-01-13T19:54:32Z</time>
      </trkpt>
      <trkpt lat="45.05963" lon="5.52225">
        <ele>1134</ele>
        <time>2022-01-13T19:54:44Z</time>
      </trkpt>
      <trkpt lat="45.05951" lon="5.52206">
        <ele>1133</ele>
        <time>2022-01-13T19:54:59Z</time>
      </trkpt>
      <trkpt lat="45.05916" lon="5.52182">
        <ele>1131</ele>
        <time>2022-01-13T19:55:30Z</time>
      </trkpt>
      <trkpt lat="45.05859" lon="5.52154">
        <ele>1128</ele>
        <time>2022-01-13T19:56:18Z</time>
      </trkpt>
      <trkpt lat="45.05846" lon="5.52146">
        <ele>1127</ele>
        <time>2022-01-13T19:56:30Z</time>
      </trkpt>
      <trkpt lat="45.05839" lon="5.52135">
        <ele>1127</ele>
        <time>2022-01-13T19:56:38Z</time>
      </trkpt>
      <trkpt lat="45.05832" lon="5.52119">
        <ele>1127</ele>
        <time>2022-01-13T19:56:49Z</time>
      </trkpt>
      <trkpt lat="45.05832" lon="5.52115">
        <ele>1127</ele>
        <time>2022-01-13T19:56:51Z</time>
      </trkpt>
      <trkpt lat="45.05835" lon="5.52096">
        <ele>1127</ele>
        <time>2022-01-13T19:57:02Z</time>
      </trkpt>
      <trkpt lat="45.0584" lon="5.5207">
        <ele>1128</ele>
        <time>2022-01-13T19:57:17Z</time>
      </trkpt>
      <trkpt lat="45.05855" lon="5.52017">
        <ele>1129</ele>
        <time>2022-01-13T19:57:49Z</time>
      </trkpt>
      <trkpt lat="45.05865" lon="5.51993">
        <ele>1128</ele>
        <time>2022-01-13T19:58:05Z</time>
      </trkpt>
      <trkpt lat="45.05878" lon="5.51946">
        <ele>1125</ele>
        <time>2022-01-13T19:58:34Z</time>
      </trkpt>
      <trkpt lat="45.05904" lon="5.51894">
        <ele>1120</ele>
        <time>2022-01-13T19:59:10Z</time>
      </trkpt>
      <trkpt lat="45.05932" lon="5.51838">
        <ele>1113</ele>
        <time>2022-01-13T19:59:49Z</time>
      </trkpt>
      <trkpt lat="45.05934" lon="5.51804">
        <ele>1111</ele>
        <time>2022-01-13T20:00:08Z</time>
      </trkpt>
      <trkpt lat="45.05939" lon="5.51772">
        <ele>1109</ele>
        <time>2022-01-13T20:00:26Z</time>
      </trkpt>
      <trkpt lat="45.05956" lon="5.51734">
        <ele>1106</ele>
        <time>2022-01-13T20:00:52Z</time>
      </trkpt>
      <trkpt lat="45.05952" lon="5.51724">
        <ele>1106</ele>
        <time>2022-01-13T20:00:58Z</time>
      </trkpt>
      <trkpt lat="45.05953" lon="5.5171">
        <ele>1105</ele>
        <time>2022-01-13T20:01:06Z</time>
      </trkpt>
      <trkpt lat="45.05952" lon="5.51724">
        <ele>1106</ele>
        <time>2022-01-13T20:01:14Z</time>
      </trkpt>
      <trkpt lat="45.05938" lon="5.5168">
        <ele>1105</ele>
        <time>2022-01-13T20:01:42Z</time>
      </trkpt>
      <trkpt lat="45.05924" lon="5.51618">
        <ele>1104</ele>
        <time>2022-01-13T20:02:18Z</time>
      </trkpt>
      <trkpt lat="45.05922" lon="5.51544">
        <ele>1105</ele>
        <time>2022-01-13T20:03:00Z</time>
      </trkpt>
      <trkpt lat="45.05912" lon="5.51498">
        <ele>1106</ele>
        <time>2022-01-13T20:03:28Z</time>
      </trkpt>
      <trkpt lat="45.0591" lon="5.51479">
        <ele>1107</ele>
        <time>2022-01-13T20:03:38Z</time>
      </trkpt>
      <trkpt lat="45.05909" lon="5.51453">
        <ele>1109</ele>
        <time>2022-01-13T20:03:53Z</time>
      </trkpt>
      <trkpt lat="45.059" lon="5.51415">
        <ele>1111</ele>
        <time>2022-01-13T20:04:16Z</time>
      </trkpt>
      <trkpt lat="45.05891" lon="5.51393">
        <ele>1112</ele>
        <time>2022-01-13T20:04:30Z</time>
      </trkpt>
      <trkpt lat="45.05888" lon="5.51371">
        <ele>1113</ele>
        <time>2022-01-13T20:04:43Z</time>
      </trkpt>
      <trkpt lat="45.05889" lon="5.51346">
        <ele>1114</ele>
        <time>2022-01-13T20:04:57Z</time>
      </trkpt>
      <trkpt lat="45.05895" lon="5.51323">
        <ele>1115</ele>
        <time>2022-01-13T20:05:11Z</time>
      </trkpt>
      <trkpt lat="45.05901" lon="5.51308">
        <ele>1115</ele>
        <time>2022-01-13T20:05:21Z</time>
      </trkpt>
      <trkpt lat="45.05925" lon="5.51277">
        <ele>1116</ele>
        <time>2022-01-13T20:05:47Z</time>
      </trkpt>
      <trkpt lat="45.05943" lon="5.51258">
        <ele>1117</ele>
        <time>2022-01-13T20:06:05Z</time>
      </trkpt>
      <trkpt lat="45.05965" lon="5.51229">
        <ele>1121</ele>
        <time>2022-01-13T20:06:29Z</time>
      </trkpt>
      <trkpt lat="45.0597" lon="5.51217">
        <ele>1122</ele>
        <time>2022-01-13T20:06:37Z</time>
      </trkpt>
      <trkpt lat="45.05981" lon="5.51175">
        <ele>1125</ele>
        <time>2022-01-13T20:07:02Z</time>
      </trkpt>
      <trkpt lat="45.05997" lon="5.51144">
        <ele>1127</ele>
        <time>2022-01-13T20:07:24Z</time>
      </trkpt>
      <trkpt lat="45.06028" lon="5.5109">
        <ele>1131</ele>
        <time>2022-01-13T20:08:03Z</time>
      </trkpt>
      <trkpt lat="45.06039" lon="5.51073">
        <ele>1132</ele>
        <time>2022-01-13T20:08:16Z</time>
      </trkpt>
      <trkpt lat="45.06049" lon="5.51042">
        <ele>1133</ele>
        <time>2022-01-13T20:08:35Z</time>
      </trkpt>
      <trkpt lat="45.06058" lon="5.51018">
        <ele>1133</ele>
        <time>2022-01-13T20:08:51Z</time>
      </trkpt>
      <trkpt lat="45.06066" lon="5.51003">
        <ele>1133</ele>
        <time>2022-01-13T20:09:01Z</time>
      </trkpt>
      <trkpt lat="45.0608" lon="5.50986">
        <ele>1133</ele>
        <time>2022-01-13T20:09:16Z</time>
      </trkpt>
      <trkpt lat="45.06108" lon="5.50965">
        <ele>1137</ele>
        <time>2022-01-13T20:09:41Z</time>
      </trkpt>
      <trkpt lat="45.06141" lon="5.50934">
        <ele>1141</ele>
        <time>2022-01-13T20:10:13Z</time>
      </trkpt>
      <trkpt lat="45.06134" lon="5.50904">
        <ele>1145</ele>
        <time>2022-01-13T20:10:31Z</time>
      </trkpt>
      <trkpt lat="45.0613" lon="5.50879">
        <ele>1148</ele>
        <time>2022-01-13T20:10:45Z</time>
      </trkpt>
      <trkpt lat="45.06123" lon="5.50863">
        <ele>1151</ele>
        <time>2022-01-13T20:10:56Z</time>
      </trkpt>
      <trkpt lat="45.06127" lon="5.50846">
        <ele>1153</ele>
        <time>2022-01-13T20:11:06Z</time>
      </trkpt>
      <trkpt lat="45.06139" lon="5.5082">
        <ele>1157</ele>
        <time>2022-01-13T20:11:24Z</time>
      </trkpt>
      <trkpt lat="45.06157" lon="5.50802">
        <ele>1160</ele>
        <time>2022-01-13T20:11:41Z</time>
      </trkpt>
      <trkpt lat="45.06176" lon="5.50794">
        <ele>1161</ele>
        <time>2022-01-13T20:11:57Z</time>
      </trkpt>
      <trkpt lat="45.06188" lon="5.50781">
        <ele>1164</ele>
        <time>2022-01-13T20:12:09Z</time>
      </trkpt>
      <trkpt lat="45.06199" lon="5.50773">
        <ele>1166</ele>
        <time>2022-01-13T20:12:19Z</time>
      </trkpt>
      <trkpt lat="45.06198" lon="5.50766">
        <ele>1167</ele>
        <time>2022-01-13T20:12:23Z</time>
      </trkpt>
      <trkpt lat="45.06147" lon="5.50743">
        <ele>1174</ele>
        <time>2022-01-13T20:13:06Z</time>
      </trkpt>
      <trkpt lat="45.06136" lon="5.50728">
        <ele>1179</ele>
        <time>2022-01-13T20:13:18Z</time>
      </trkpt>
      <trkpt lat="45.06126" lon="5.50724">
        <ele>1181</ele>
        <time>2022-01-13T20:13:27Z</time>
      </trkpt>
      <trkpt lat="45.06122" lon="5.50718">
        <ele>1184</ele>
        <time>2022-01-13T20:13:31Z</time>
      </trkpt>
      <trkpt lat="45.06121" lon="5.5071">
        <ele>1186</ele>
        <time>2022-01-13T20:13:36Z</time>
      </trkpt>
      <trkpt lat="45.06124" lon="5.5069">
        <ele>1190</ele>
        <time>2022-01-13T20:13:48Z</time>
      </trkpt>
      <trkpt lat="45.06128" lon="5.50677">
        <ele>1193</ele>
        <time>2022-01-13T20:13:56Z</time>
      </trkpt>
      <trkpt lat="45.06167" lon="5.5063">
        <ele>1190</ele>
        <time>2022-01-13T20:14:37Z</time>
      </trkpt>
      <trkpt lat="45.06169" lon="5.5061">
        <ele>1192</ele>
        <time>2022-01-13T20:14:48Z</time>
      </trkpt>
      <trkpt lat="45.06198" lon="5.50587">
        <ele>1192</ele>
        <time>2022-01-13T20:15:15Z</time>
      </trkpt>
      <trkpt lat="45.06242" lon="5.50553">
        <ele>1191</ele>
        <time>2022-01-13T20:15:55Z</time>
      </trkpt>
      <trkpt lat="45.06313" lon="5.5051">
        <ele>1183</ele>
        <time>2022-01-13T20:16:57Z</time>
      </trkpt>
      <trkpt lat="45.06327" lon="5.50498">
        <ele>1180</ele>
        <time>2022-01-13T20:17:10Z</time>
      </trkpt>
      <trkpt lat="45.06346" lon="5.5047">
        <ele>1179</ele>
        <time>2022-01-13T20:17:32Z</time>
      </trkpt>
      <trkpt lat="45.06373" lon="5.50392">
        <ele>1177</ele>
        <time>2022-01-13T20:18:21Z</time>
      </trkpt>
      <trkpt lat="45.06401" lon="5.50331">
        <ele>1176</ele>
        <time>2022-01-13T20:19:02Z</time>
      </trkpt>
      <trkpt lat="45.06423" lon="5.50268">
        <ele>1180</ele>
        <time>2022-01-13T20:19:42Z</time>
      </trkpt>
      <trkpt lat="45.0644" lon="5.50217">
        <ele>1183</ele>
        <time>2022-01-13T20:20:14Z</time>
      </trkpt>
      <trkpt lat="45.06459" lon="5.50169">
        <ele>1185</ele>
        <time>2022-01-13T20:20:45Z</time>
      </trkpt>
      <trkpt lat="45.06466" lon="5.50148">
        <ele>1188</ele>
        <time>2022-01-13T20:20:58Z</time>
      </trkpt>
      <trkpt lat="45.06506" lon="5.50108">
        <ele>1187</ele>
        <time>2022-01-13T20:21:37Z</time>
      </trkpt>
      <trkpt lat="45.0654" lon="5.50084">
        <ele>1188</ele>
        <time>2022-01-13T20:22:08Z</time>
      </trkpt>
      <trkpt lat="45.06576" lon="5.50058">
        <ele>1189</ele>
        <time>2022-01-13T20:22:40Z</time>
      </trkpt>
      <trkpt lat="45.0659" lon="5.50039">
        <ele>1190</ele>
        <time>2022-01-13T20:22:55Z</time>
      </trkpt>
      <trkpt lat="45.06604" lon="5.50018">
        <ele>1191</ele>
        <time>2022-01-13T20:23:12Z</time>
      </trkpt>
      <trkpt lat="45.06625" lon="5.50006">
        <ele>1188</ele>
        <time>2022-01-13T20:23:30Z</time>
      </trkpt>
      <trkpt lat="45.06626" lon="5.49991">
        <ele>1190</ele>
        <time>2022-01-13T20:23:38Z</time>
      </trkpt>
      <trkpt lat="45.0663" lon="5.49977">
        <ele>1190</ele>
        <time>2022-01-13T20:23:47Z</time>
      </trkpt>
      <trkpt lat="45.06629" lon="5.49971">
        <ele>1191</ele>
        <time>2022-01-13T20:23:50Z</time>
      </trkpt>
      <trkpt lat="45.06605" lon="5.4993">
        <ele>1202</ele>
        <time>2022-01-13T20:24:21Z</time>
      </trkpt>
      <trkpt lat="45.06599" lon="5.49909">
        <ele>1205</ele>
        <time>2022-01-13T20:24:33Z</time>
      </trkpt>
      <trkpt lat="45.06598" lon="5.49898">
        <ele>1205</ele>
        <time>2022-01-13T20:24:40Z</time>
      </trkpt>
      <trkpt lat="45.06601" lon="5.49887">
        <ele>1204</ele>
        <time>2022-01-13T20:24:46Z</time>
      </trkpt>
      <trkpt lat="45.06624" lon="5.4985">
        <ele>1197</ele>
        <time>2022-01-13T20:25:14Z</time>
      </trkpt>
      <trkpt lat="45.06627" lon="5.49836">
        <ele>1196</ele>
        <time>2022-01-13T20:25:22Z</time>
      </trkpt>
      <trkpt lat="45.06625" lon="5.49824">
        <ele>1196</ele>
        <time>2022-01-13T20:25:29Z</time>
      </trkpt>
      <trkpt lat="45.06612" lon="5.4978">
        <ele>1199</ele>
        <time>2022-01-13T20:25:56Z</time>
      </trkpt>
      <trkpt lat="45.06573" lon="5.49677">
        <ele>1195</ele>
        <time>2022-01-13T20:27:02Z</time>
      </trkpt>
      <trkpt lat="45.06562" lon="5.49661">
        <ele>1195</ele>
        <time>2022-01-13T20:27:15Z</time>
      </trkpt>
      <trkpt lat="45.06535" lon="5.49647">
        <ele>1199</ele>
        <time>2022-01-13T20:27:38Z</time>
      </trkpt>
      <trkpt lat="45.06501" lon="5.49617">
        <ele>1198</ele>
        <time>2022-01-13T20:28:10Z</time>
      </trkpt>
      <trkpt lat="45.06475" lon="5.49579">
        <ele>1197</ele>
        <time>2022-01-13T20:28:40Z</time>
      </trkpt>
      <trkpt lat="45.06458" lon="5.49548">
        <ele>1191</ele>
        <time>2022-01-13T20:29:02Z</time>
      </trkpt>
      <trkpt lat="45.06445" lon="5.49514">
        <ele>1180</ele>
        <time>2022-01-13T20:29:24Z</time>
      </trkpt>
      <trkpt lat="45.06434" lon="5.49475">
        <ele>1171</ele>
        <time>2022-01-13T20:29:48Z</time>
      </trkpt>
      <trkpt lat="45.06345" lon="5.49346">
        <ele>1175</ele>
        <time>2022-01-13T20:31:30Z</time>
      </trkpt>
      <trkpt lat="45.06314" lon="5.49307">
        <ele>1183</ele>
        <time>2022-01-13T20:32:03Z</time>
      </trkpt>
      <trkpt lat="45.06293" lon="5.4928">
        <ele>1193</ele>
        <time>2022-01-13T20:32:26Z</time>
      </trkpt>
      <trkpt lat="45.06288" lon="5.49261">
        <ele>1195</ele>
        <time>2022-01-13T20:32:37Z</time>
      </trkpt>
      <trkpt lat="45.06289" lon="5.49254">
        <ele>1194</ele>
        <time>2022-01-13T20:32:41Z</time>
      </trkpt>
      <trkpt lat="45.0629" lon="5.49239">
        <ele>1195</ele>
        <time>2022-01-13T20:32:50Z</time>
      </trkpt>
      <trkpt lat="45.06293" lon="5.49232">
        <ele>1194</ele>
        <time>2022-01-13T20:32:54Z</time>
      </trkpt>
      <trkpt lat="45.06365" lon="5.49098">
        <ele>1174</ele>
        <time>2022-01-13T20:34:30Z</time>
      </trkpt>
      <trkpt lat="45.0639" lon="5.49047">
        <ele>1171</ele>
        <time>2022-01-13T20:35:05Z</time>
      </trkpt>
      <trkpt lat="45.06406" lon="5.48997">
        <ele>1171</ele>
        <time>2022-01-13T20:35:36Z</time>
      </trkpt>
      <trkpt lat="45.06418" lon="5.48956">
        <ele>1166</ele>
        <time>2022-01-13T20:36:01Z</time>
      </trkpt>
      <trkpt lat="45.06423" lon="5.48906">
        <ele>1163</ele>
        <time>2022-01-13T20:36:29Z</time>
      </trkpt>
      <trkpt lat="45.06414" lon="5.48811">
        <ele>1154</ele>
        <time>2022-01-13T20:37:24Z</time>
      </trkpt>
      <trkpt lat="45.06412" lon="5.488">
        <ele>1153</ele>
        <time>2022-01-13T20:37:30Z</time>
      </trkpt>
      <trkpt lat="45.06414" lon="5.48811">
        <ele>1154</ele>
        <time>2022-01-13T20:37:37Z</time>
      </trkpt>
      <trkpt lat="45.06473" lon="5.48906">
        <ele>1141</ele>
        <time>2022-01-13T20:38:48Z</time>
      </trkpt>
      <trkpt lat="45.06481" lon="5.48913">
        <ele>1139</ele>
        <time>2022-01-13T20:38:56Z</time>
      </trkpt>
      <trkpt lat="45.06485" lon="5.48919">
        <ele>1137</ele>
        <time>2022-01-13T20:39:00Z</time>
      </trkpt>
      <trkpt lat="45.06491" lon="5.48922">
        <ele>1135</ele>
        <time>2022-01-13T20:39:05Z</time>
      </trkpt>
      <trkpt lat="45.06501" lon="5.48929">
        <ele>1130</ele>
        <time>2022-01-13T20:39:14Z</time>
      </trkpt>
      <trkpt lat="45.06515" lon="5.48962">
        <ele>1125</ele>
        <time>2022-01-13T20:39:36Z</time>
      </trkpt>
      <trkpt lat="45.06523" lon="5.48977">
        <ele>1124</ele>
        <time>2022-01-13T20:39:47Z</time>
      </trkpt>
      <trkpt lat="45.06537" lon="5.48966">
        <ele>1121</ele>
        <time>2022-01-13T20:40:00Z</time>
      </trkpt>
      <trkpt lat="45.06542" lon="5.48959">
        <ele>1119</ele>
        <time>2022-01-13T20:40:05Z</time>
      </trkpt>
      <trkpt lat="45.06574" lon="5.48939">
        <ele>1110</ele>
        <time>2022-01-13T20:40:33Z</time>
      </trkpt>
      <trkpt lat="45.06525" lon="5.48977">
        <ele>1123</ele>
        <time>2022-01-13T20:41:18Z</time>
      </trkpt>
      <trkpt lat="45.06507" lon="5.4894">
        <ele>1128</ele>
        <time>2022-01-13T20:41:43Z</time>
      </trkpt>
      <trkpt lat="45.06501" lon="5.48929">
        <ele>1130</ele>
        <time>2022-01-13T20:41:51Z</time>
      </trkpt>
      <trkpt lat="45.06491" lon="5.48922">
        <ele>1135</ele>
        <time>2022-01-13T20:42:00Z</time>
      </trkpt>
      <trkpt lat="45.06485" lon="5.48919">
        <ele>1137</ele>
        <time>2022-01-13T20:42:05Z</time>
      </trkpt>
      <trkpt lat="45.06481" lon="5.48913">
        <ele>1139</ele>
        <time>2022-01-13T20:42:10Z</time>
      </trkpt>
      <trkpt lat="45.06473" lon="5.48906">
        <ele>1141</ele>
        <time>2022-01-13T20:42:17Z</time>
      </trkpt>
      <trkpt lat="45.06431" lon="5.48837">
        <ele>1151</ele>
        <time>2022-01-13T20:43:09Z</time>
      </trkpt>
      <trkpt lat="45.06419" lon="5.48811">
        <ele>1152</ele>
        <time>2022-01-13T20:43:26Z</time>
      </trkpt>
      <trkpt lat="45.06414" lon="5.48811">
        <ele>1154</ele>
        <time>2022-01-13T20:43:30Z</time>
      </trkpt>
      <trkpt lat="45.06398" lon="5.4874">
        <ele>1148</ele>
        <time>2022-01-13T20:44:13Z</time>
      </trkpt>
      <trkpt lat="45.06336" lon="5.4858">
        <ele>1146</ele>
        <time>2022-01-13T20:45:56Z</time>
      </trkpt>
      <trkpt lat="45.06308" lon="5.48528">
        <ele>1153</ele>
        <time>2022-01-13T20:46:33Z</time>
      </trkpt>
      <trkpt lat="45.06291" lon="5.48481">
        <ele>1156</ele>
        <time>2022-01-13T20:47:03Z</time>
      </trkpt>
      <trkpt lat="45.06277" lon="5.48447">
        <ele>1157</ele>
        <time>2022-01-13T20:47:25Z</time>
      </trkpt>
      <trkpt lat="45.06265" lon="5.48417">
        <ele>1156</ele>
        <time>2022-01-13T20:47:44Z</time>
      </trkpt>
      <trkpt lat="45.06261" lon="5.48396">
        <ele>1161</ele>
        <time>2022-01-13T20:47:57Z</time>
      </trkpt>
      <trkpt lat="45.0619" lon="5.48348">
        <ele>1174</ele>
        <time>2022-01-13T20:49:00Z</time>
      </trkpt>
      <trkpt lat="45.06098" lon="5.48277">
        <ele>1194</ele>
        <time>2022-01-13T20:50:24Z</time>
      </trkpt>
      <trkpt lat="45.05996" lon="5.48213">
        <ele>1218</ele>
        <time>2022-01-13T20:51:53Z</time>
      </trkpt>
      <trkpt lat="45.0595" lon="5.4819">
        <ele>1225</ele>
        <time>2022-01-13T20:52:32Z</time>
      </trkpt>
      <trkpt lat="45.05934" lon="5.48156">
        <ele>1230</ele>
        <time>2022-01-13T20:52:55Z</time>
      </trkpt>
      <trkpt lat="45.05899" lon="5.48122">
        <ele>1239</ele>
        <time>2022-01-13T20:53:29Z</time>
      </trkpt>
      <trkpt lat="45.05851" lon="5.48098">
        <ele>1244</ele>
        <time>2022-01-13T20:54:10Z</time>
      </trkpt>
      <trkpt lat="45.05813" lon="5.48047">
        <ele>1252</ele>
        <time>2022-01-13T20:54:52Z</time>
      </trkpt>
      <trkpt lat="45.05789" lon="5.47994">
        <ele>1257</ele>
        <time>2022-01-13T20:55:27Z</time>
      </trkpt>
      <trkpt lat="45.05757" lon="5.47946">
        <ele>1259</ele>
        <time>2022-01-13T20:56:05Z</time>
      </trkpt>
      <trkpt lat="45.05736" lon="5.47926">
        <ele>1260</ele>
        <time>2022-01-13T20:56:25Z</time>
      </trkpt>
      <trkpt lat="45.05743" lon="5.47939">
        <ele>1259</ele>
        <time>2022-01-13T20:56:34Z</time>
      </trkpt>
      <trkpt lat="45.05756" lon="5.47975">
        <ele>1257</ele>
        <time>2022-01-13T20:56:57Z</time>
      </trkpt>
      <trkpt lat="45.0576" lon="5.48008">
        <ele>1255</ele>
        <time>2022-01-13T20:57:16Z</time>
      </trkpt>
      <trkpt lat="45.05774" lon="5.48063">
        <ele>1254</ele>
        <time>2022-01-13T20:57:49Z</time>
      </trkpt>
      <trkpt lat="45.05805" lon="5.48144">
        <ele>1250</ele>
        <time>2022-01-13T20:58:41Z</time>
      </trkpt>
      <trkpt lat="45.05828" lon="5.48199">
        <ele>1248</ele>
        <time>2022-01-13T20:59:17Z</time>
      </trkpt>
      <trkpt lat="45.05862" lon="5.48261">
        <ele>1247</ele>
        <time>2022-01-13T21:00:02Z</time>
      </trkpt>
      <trkpt lat="45.05888" lon="5.48301">
        <ele>1245</ele>
        <time>2022-01-13T21:00:32Z</time>
      </trkpt>
      <trkpt lat="45.05907" lon="5.48337">
        <ele>1244</ele>
        <time>2022-01-13T21:00:58Z</time>
      </trkpt>
      <trkpt lat="45.05969" lon="5.48438">
        <ele>1237</ele>
        <time>2022-01-13T21:02:14Z</time>
      </trkpt>
      <trkpt lat="45.06026" lon="5.48544">
        <ele>1233</ele>
        <time>2022-01-13T21:03:29Z</time>
      </trkpt>
      <trkpt lat="45.0611" lon="5.48689">
        <ele>1235</ele>
        <time>2022-01-13T21:05:15Z</time>
      </trkpt>
      <trkpt lat="45.06152" lon="5.48724">
        <ele>1234</ele>
        <time>2022-01-13T21:05:54Z</time>
      </trkpt>
      <trkpt lat="45.06202" lon="5.48762">
        <ele>1226</ele>
        <time>2022-01-13T21:06:39Z</time>
      </trkpt>
      <trkpt lat="45.06243" lon="5.48816">
        <ele>1224</ele>
        <time>2022-01-13T21:07:24Z</time>
      </trkpt>
      <trkpt lat="45.06299" lon="5.4893">
        <ele>1226</ele>
        <time>2022-01-13T21:08:43Z</time>
      </trkpt>
      <trkpt lat="45.0631" lon="5.48997">
        <ele>1223</ele>
        <time>2022-01-13T21:09:22Z</time>
      </trkpt>
      <trkpt lat="45.06309" lon="5.49022">
        <ele>1221</ele>
        <time>2022-01-13T21:09:36Z</time>
      </trkpt>
      <trkpt lat="45.06303" lon="5.49064">
        <ele>1221</ele>
        <time>2022-01-13T21:10:00Z</time>
      </trkpt>
      <trkpt lat="45.063" lon="5.49081">
        <ele>1222</ele>
        <time>2022-01-13T21:10:10Z</time>
      </trkpt>
      <trkpt lat="45.06287" lon="5.4912">
        <ele>1224</ele>
        <time>2022-01-13T21:10:34Z</time>
      </trkpt>
      <trkpt lat="45.06279" lon="5.49147">
        <ele>1223</ele>
        <time>2022-01-13T21:10:51Z</time>
      </trkpt>
      <trkpt lat="45.06276" lon="5.49175">
        <ele>1218</ele>
        <time>2022-01-13T21:11:07Z</time>
      </trkpt>
      <trkpt lat="45.06271" lon="5.49193">
        <ele>1218</ele>
        <time>2022-01-13T21:11:18Z</time>
      </trkpt>
      <trkpt lat="45.06264" lon="5.49209">
        <ele>1220</ele>
        <time>2022-01-13T21:11:29Z</time>
      </trkpt>
      <trkpt lat="45.06237" lon="5.4925">
        <ele>1228</ele>
        <time>2022-01-13T21:12:00Z</time>
      </trkpt>
      <trkpt lat="45.06234" lon="5.49261">
        <ele>1229</ele>
        <time>2022-01-13T21:12:07Z</time>
      </trkpt>
      <trkpt lat="45.06234" lon="5.49279">
        <ele>1229</ele>
        <time>2022-01-13T21:12:17Z</time>
      </trkpt>
      <trkpt lat="45.06236" lon="5.49288">
        <ele>1227</ele>
        <time>2022-01-13T21:12:22Z</time>
      </trkpt>
      <trkpt lat="45.06242" lon="5.49295">
        <ele>1223</ele>
        <time>2022-01-13T21:12:29Z</time>
      </trkpt>
      <trkpt lat="45.06264" lon="5.49309">
        <ele>1211</ele>
        <time>2022-01-13T21:12:48Z</time>
      </trkpt>
      <trkpt lat="45.06273" lon="5.49317">
        <ele>1206</ele>
        <time>2022-01-13T21:12:57Z</time>
      </trkpt>
      <trkpt lat="45.06317" lon="5.49394">
        <ele>1198</ele>
        <time>2022-01-13T21:13:53Z</time>
      </trkpt>
      <trkpt lat="45.06349" lon="5.49445">
        <ele>1199</ele>
        <time>2022-01-13T21:14:31Z</time>
      </trkpt>
      <trkpt lat="45.06365" lon="5.49465">
        <ele>1199</ele>
        <time>2022-01-13T21:14:48Z</time>
      </trkpt>
      <trkpt lat="45.06384" lon="5.49479">
        <ele>1196</ele>
        <time>2022-01-13T21:15:05Z</time>
      </trkpt>
      <trkpt lat="45.06409" lon="5.4949">
        <ele>1188</ele>
        <time>2022-01-13T21:15:26Z</time>
      </trkpt>
      <trkpt lat="45.06434" lon="5.49498">
        <ele>1178</ele>
        <time>2022-01-13T21:15:47Z</time>
      </trkpt>
      <trkpt lat="45.06443" lon="5.49508">
        <ele>1178</ele>
        <time>2022-01-13T21:15:56Z</time>
      </trkpt>
      <trkpt lat="45.06442" lon="5.49504">
        <ele>1177</ele>
        <time>2022-01-13T21:15:58Z</time>
      </trkpt>
      <trkpt lat="45.06443" lon="5.49508">
        <ele>1178</ele>
        <time>2022-01-13T21:16:01Z</time>
      </trkpt>
      <trkpt lat="45.06458" lon="5.49548">
        <ele>1191</ele>
        <time>2022-01-13T21:16:26Z</time>
      </trkpt>
      <trkpt lat="45.06475" lon="5.49579">
        <ele>1197</ele>
        <time>2022-01-13T21:16:49Z</time>
      </trkpt>
      <trkpt lat="45.06501" lon="5.49617">
        <ele>1198</ele>
        <time>2022-01-13T21:17:19Z</time>
      </trkpt>
      <trkpt lat="45.06535" lon="5.49647">
        <ele>1199</ele>
        <time>2022-01-13T21:17:51Z</time>
      </trkpt>
      <trkpt lat="45.06562" lon="5.49661">
        <ele>1195</ele>
        <time>2022-01-13T21:18:14Z</time>
      </trkpt>
      <trkpt lat="45.06573" lon="5.49677">
        <ele>1195</ele>
        <time>2022-01-13T21:18:26Z</time>
      </trkpt>
      <trkpt lat="45.06612" lon="5.4978">
        <ele>1199</ele>
        <time>2022-01-13T21:19:32Z</time>
      </trkpt>
      <trkpt lat="45.06625" lon="5.49824">
        <ele>1196</ele>
        <time>2022-01-13T21:19:59Z</time>
      </trkpt>
      <trkpt lat="45.06627" lon="5.49836">
        <ele>1196</ele>
        <time>2022-01-13T21:20:06Z</time>
      </trkpt>
      <trkpt lat="45.06624" lon="5.4985">
        <ele>1197</ele>
        <time>2022-01-13T21:20:15Z</time>
      </trkpt>
      <trkpt lat="45.06601" lon="5.49887">
        <ele>1204</ele>
        <time>2022-01-13T21:20:42Z</time>
      </trkpt>
      <trkpt lat="45.06598" lon="5.49898">
        <ele>1205</ele>
        <time>2022-01-13T21:20:49Z</time>
      </trkpt>
      <trkpt lat="45.06599" lon="5.49909">
        <ele>1205</ele>
        <time>2022-01-13T21:20:55Z</time>
      </trkpt>
      <trkpt lat="45.06605" lon="5.4993">
        <ele>1202</ele>
        <time>2022-01-13T21:21:08Z</time>
      </trkpt>
      <trkpt lat="45.06629" lon="5.49971">
        <ele>1191</ele>
        <time>2022-01-13T21:21:38Z</time>
      </trkpt>
      <trkpt lat="45.0663" lon="5.49977">
        <ele>1190</ele>
        <time>2022-01-13T21:21:42Z</time>
      </trkpt>
      <trkpt lat="45.06626" lon="5.49991">
        <ele>1190</ele>
        <time>2022-01-13T21:21:50Z</time>
      </trkpt>
      <trkpt lat="45.06622" lon="5.49997">
        <ele>1190</ele>
        <time>2022-01-13T21:21:55Z</time>
      </trkpt>
      <trkpt lat="45.06612" lon="5.50007">
        <ele>1191</ele>
        <time>2022-01-13T21:22:05Z</time>
      </trkpt>
      <trkpt lat="45.06562" lon="5.50072">
        <ele>1188</ele>
        <time>2022-01-13T21:22:59Z</time>
      </trkpt>
      <trkpt lat="45.06495" lon="5.50123">
        <ele>1186</ele>
        <time>2022-01-13T21:24:00Z</time>
      </trkpt>
      <trkpt lat="45.06457" lon="5.50176">
        <ele>1185</ele>
        <time>2022-01-13T21:24:43Z</time>
      </trkpt>
      <trkpt lat="45.06396" lon="5.50342">
        <ele>1176</ele>
        <time>2022-01-13T21:26:29Z</time>
      </trkpt>
      <trkpt lat="45.06358" lon="5.50439">
        <ele>1178</ele>
        <time>2022-01-13T21:27:31Z</time>
      </trkpt>
      <trkpt lat="45.06328" lon="5.50506">
        <ele>1180</ele>
        <time>2022-01-13T21:28:16Z</time>
      </trkpt>
      <trkpt lat="45.06313" lon="5.5051">
        <ele>1183</ele>
        <time>2022-01-13T21:28:28Z</time>
      </trkpt>
      <trkpt lat="45.06242" lon="5.50553">
        <ele>1191</ele>
        <time>2022-01-13T21:29:30Z</time>
      </trkpt>
      <trkpt lat="45.06198" lon="5.50587">
        <ele>1192</ele>
        <time>2022-01-13T21:30:10Z</time>
      </trkpt>
      <trkpt lat="45.06169" lon="5.5061">
        <ele>1192</ele>
        <time>2022-01-13T21:30:37Z</time>
      </trkpt>
      <trkpt lat="45.06154" lon="5.5065">
        <ele>1191</ele>
        <time>2022-01-13T21:31:03Z</time>
      </trkpt>
      <trkpt lat="45.06133" lon="5.50668">
        <ele>1194</ele>
        <time>2022-01-13T21:31:22Z</time>
      </trkpt>
      <trkpt lat="45.06131" lon="5.50704">
        <ele>1185</ele>
        <time>2022-01-13T21:31:43Z</time>
      </trkpt>
      <trkpt lat="45.06133" lon="5.50733">
        <ele>1178</ele>
        <time>2022-01-13T21:31:59Z</time>
      </trkpt>
      <trkpt lat="45.0617" lon="5.50735">
        <ele>1173</ele>
        <time>2022-01-13T21:32:29Z</time>
      </trkpt>
      <trkpt lat="45.06203" lon="5.50764">
        <ele>1168</ele>
        <time>2022-01-13T21:33:00Z</time>
      </trkpt>
      <trkpt lat="45.06146" lon="5.5081">
        <ele>1159</ele>
        <time>2022-01-13T21:33:52Z</time>
      </trkpt>
      <trkpt lat="45.06132" lon="5.50831">
        <ele>1155</ele>
        <time>2022-01-13T21:34:09Z</time>
      </trkpt>
      <trkpt lat="45.06137" lon="5.50906">
        <ele>1144</ele>
        <time>2022-01-13T21:34:51Z</time>
      </trkpt>
      <trkpt lat="45.06144" lon="5.50975">
        <ele>1138</ele>
        <time>2022-01-13T21:35:31Z</time>
      </trkpt>
      <trkpt lat="45.06144" lon="5.51023">
        <ele>1135</ele>
        <time>2022-01-13T21:35:58Z</time>
      </trkpt>
      <trkpt lat="45.06128" lon="5.51042">
        <ele>1134</ele>
        <time>2022-01-13T21:36:15Z</time>
      </trkpt>
      <trkpt lat="45.06078" lon="5.51086">
        <ele>1133</ele>
        <time>2022-01-13T21:37:02Z</time>
      </trkpt>
      <trkpt lat="45.06063" lon="5.51172">
        <ele>1128</ele>
        <time>2022-01-13T21:37:52Z</time>
      </trkpt>
      <trkpt lat="45.06045" lon="5.51242">
        <ele>1123</ele>
        <time>2022-01-13T21:38:34Z</time>
      </trkpt>
      <trkpt lat="45.06046" lon="5.51325">
        <ele>1119</ele>
        <time>2022-01-13T21:39:21Z</time>
      </trkpt>
      <trkpt lat="45.06053" lon="5.5138">
        <ele>1116</ele>
        <time>2022-01-13T21:39:53Z</time>
      </trkpt>
      <trkpt lat="45.06055" lon="5.51423">
        <ele>1113</ele>
        <time>2022-01-13T21:40:17Z</time>
      </trkpt>
      <trkpt lat="45.06048" lon="5.51492">
        <ele>1104</ele>
        <time>2022-01-13T21:40:56Z</time>
      </trkpt>
      <trkpt lat="45.06038" lon="5.51528">
        <ele>1100</ele>
        <time>2022-01-13T21:41:18Z</time>
      </trkpt>
      <trkpt lat="45.06028" lon="5.51572">
        <ele>1097</ele>
        <time>2022-01-13T21:41:44Z</time>
      </trkpt>
      <trkpt lat="45.06022" lon="5.51587">
        <ele>1097</ele>
        <time>2022-01-13T21:41:54Z</time>
      </trkpt>
      <trkpt lat="45.06001" lon="5.51625">
        <ele>1097</ele>
        <time>2022-01-13T21:42:21Z</time>
      </trkpt>
      <trkpt lat="45.05962" lon="5.51681">
        <ele>1103</ele>
        <time>2022-01-13T21:43:06Z</time>
      </trkpt>
      <trkpt lat="45.05954" lon="5.51697">
        <ele>1104</ele>
        <time>2022-01-13T21:43:17Z</time>
      </trkpt>
      <trkpt lat="45.05952" lon="5.51724">
        <ele>1106</ele>
        <time>2022-01-13T21:43:32Z</time>
      </trkpt>
      <trkpt lat="45.05954" lon="5.51734">
        <ele>1106</ele>
        <time>2022-01-13T21:43:38Z</time>
      </trkpt>
      <trkpt lat="45.05976" lon="5.518">
        <ele>1109</ele>
        <time>2022-01-13T21:44:19Z</time>
      </trkpt>
      <trkpt lat="45.06011" lon="5.51852">
        <ele>1108</ele>
        <time>2022-01-13T21:45:00Z</time>
      </trkpt>
      <trkpt lat="45.06022" lon="5.51892">
        <ele>1107</ele>
        <time>2022-01-13T21:45:24Z</time>
      </trkpt>
      <trkpt lat="45.06022" lon="5.51905">
        <ele>1108</ele>
        <time>2022-01-13T21:45:32Z</time>
      </trkpt>
      <trkpt lat="45.06022" lon="5.51957">
        <ele>1109</ele>
        <time>2022-01-13T21:46:01Z</time>
      </trkpt>
      <trkpt lat="45.06025" lon="5.51985">
        <ele>1110</ele>
        <time>2022-01-13T21:46:17Z</time>
      </trkpt>
      <trkpt lat="45.06032" lon="5.51993">
        <ele>1109</ele>
        <time>2022-01-13T21:46:24Z</time>
      </trkpt>
      <trkpt lat="45.06064" lon="5.52032">
        <ele>1108</ele>
        <time>2022-01-13T21:46:58Z</time>
      </trkpt>
      <trkpt lat="45.0609" lon="5.52071">
        <ele>1108</ele>
        <time>2022-01-13T21:47:29Z</time>
      </trkpt>
      <trkpt lat="45.06154" lon="5.52178">
        <ele>1115</ele>
        <time>2022-01-13T21:48:48Z</time>
      </trkpt>
      <trkpt lat="45.06176" lon="5.52189">
        <ele>1113</ele>
        <time>2022-01-13T21:49:06Z</time>
      </trkpt>
      <trkpt lat="45.06179" lon="5.52185">
        <ele>1113</ele>
        <time>2022-01-13T21:49:10Z</time>
      </trkpt>
      <trkpt lat="45.06176" lon="5.52189">
        <ele>1113</ele>
        <time>2022-01-13T21:49:13Z</time>
      </trkpt>
      <trkpt lat="45.0618" lon="5.52194">
        <ele>1113</ele>
        <time>2022-01-13T21:49:17Z</time>
      </trkpt>
      <trkpt lat="45.06191" lon="5.52242">
        <ele>1116</ele>
        <time>2022-01-13T21:49:46Z</time>
      </trkpt>
      <trkpt lat="45.06233" lon="5.52278">
        <ele>1115</ele>
        <time>2022-01-13T21:50:25Z</time>
      </trkpt>
      <trkpt lat="45.06239" lon="5.52288">
        <ele>1116</ele>
        <time>2022-01-13T21:50:33Z</time>
      </trkpt>
      <trkpt lat="45.0624" lon="5.523">
        <ele>1117</ele>
        <time>2022-01-13T21:50:39Z</time>
      </trkpt>
      <trkpt lat="45.06238" lon="5.52311">
        <ele>1119</ele>
        <time>2022-01-13T21:50:46Z</time>
      </trkpt>
      <trkpt lat="45.06233" lon="5.52328">
        <ele>1121</ele>
        <time>2022-01-13T21:50:56Z</time>
      </trkpt>
      <trkpt lat="45.06219" lon="5.52354">
        <ele>1125</ele>
        <time>2022-01-13T21:51:15Z</time>
      </trkpt>
    </trkseg>
  </trk>
</gpx>